Previsão horária em Al Kharj

Hoje, 27 Janeiro, Quarta-feira

Tempo Temperatura Precipitação Vento Pressão Humidade
00:00 +14°C° 0 mm 2 m/s 726 mmHg 18%
01:00 +13°C° 0 mm 1 m/s 726 mmHg 19%
02:00 +12°C° 0 mm 1 m/s 725 mmHg 20%
03:00 +12°C° 0 mm 1 m/s 725 mmHg 22%
04:00 +11°C° 0 mm 1 m/s 725 mmHg 23%
05:00 +11°C° 0 mm 1 m/s 726 mmHg 24%
06:00 +11°C° 0 mm 1 m/s 726 mmHg 24%
07:00 +14°C° 0 mm 1 m/s 726 mmHg 21%
08:00 +18°C° 0 mm 1 m/s 727 mmHg 17%
09:00 +21°C° 0 mm 1 m/s 728 mmHg 14%
10:00 +23°C° 0 mm 2 m/s 727 mmHg 14%
11:00 +25°C° 0 mm 3 m/s 727 mmHg 14%
12:00 +27°C° 0 mm 4 m/s 727 mmHg 14%
13:00 +27°C° 0 mm 4 m/s 726 mmHg 13%
14:00 +28°C° 0 mm 5 m/s 725 mmHg 13%
15:00 +28°C° 0 mm 5 m/s 725 mmHg 13%
16:00 +26°C° 0 mm 5 m/s 725 mmHg 16%
17:00 +23°C° 0 mm 4 m/s 725 mmHg 18%
18:00 +21°C° 0 mm 4 m/s 725 mmHg 20%
19:00 +20°C° 0 mm 4 m/s 725 mmHg 22%
20:00 +19°C° 0 mm 4 m/s 725 mmHg 25%
21:00 +18°C° 0 mm 4 m/s 726 mmHg 27%
22:00 +17°C° 0 mm 4 m/s 725 mmHg 29%
23:00 +17°C° 0 mm 3 m/s 725 mmHg 31%

Amanhã, 28 Janeiro, Quinta-feira

Tempo Temperatura Precipitação Vento Pressão Humidade
00:00 +16°C° 0 mm 3 m/s 725 mmHg 33%
01:00 +16°C° 0 mm 3 m/s 725 mmHg 35%
02:00 +14°C° 0 mm 3 m/s 724 mmHg 37%
03:00 +14°C° 0 mm 3 m/s 724 mmHg 39%
04:00 +13°C° 0 mm 3 m/s 724 mmHg 40%
05:00 +13°C° 0 mm 3 m/s 724 mmHg 40%
06:00 +13°C° 0 mm 3 m/s 725 mmHg 40%
07:00 +16°C° 0 mm 3 m/s 725 mmHg 36%
08:00 +18°C° 0 mm 4 m/s 726 mmHg 31%
09:00 +20°C° 0 mm 5 m/s 726 mmHg 26%
10:00 +22°C° 0 mm 6 m/s 726 mmHg 23%
11:00 +24°C° 0 mm 6 m/s 725 mmHg 20%
12:00 +27°C° 0 mm 7 m/s 725 mmHg 18%
13:00 +28°C° 0 mm 7 m/s 725 mmHg 17%
14:00 +29°C° 0 mm 6 m/s 724 mmHg 15%
15:00 +30°C° 0 mm 6 m/s 724 mmHg 14%
16:00 +28°C° 0 mm 6 m/s 724 mmHg 17%
17:00 +26°C° 0 mm 5 m/s 724 mmHg 19%
18:00 +23°C° 0 mm 4 m/s 724 mmHg 21%
19:00 +22°C° 0 mm 4 m/s 724 mmHg 23%
20:00 +21°C° 0 mm 5 m/s 724 mmHg 25%
21:00 +20°C° 0 mm 5 m/s 724 mmHg 28%
22:00 +19°C° 0 mm 4 m/s 724 mmHg 29%
23:00 +18°C° 0 mm 4 m/s 724 mmHg 31%

Depois de amanhã, 29 Janeiro, Sexta-feira

Tempo Temperatura Precipitação Vento Pressão Humidade
00:00 +18°C° 0 mm 4 m/s 724 mmHg 33%
01:00 +17°C° 0 mm 4 m/s 723 mmHg 34%
02:00 +17°C° 0 mm 4 m/s 723 mmHg 35%
03:00 +15°C° 0 mm 4 m/s 723 mmHg 36%
04:00 +15°C° 0 mm 4 m/s 723 mmHg 36%
05:00 +14°C° 0 mm 4 m/s 723 mmHg 37%
06:00 +14°C° 0 mm 4 m/s 723 mmHg 37%
07:00 +16°C° 0 mm 5 m/s 724 mmHg 33%
08:00 +19°C° 0 mm 6 m/s 724 mmHg 28%
09:00 +21°C° 0 mm 6 m/s 725 mmHg 24%
10:00 +24°C° 0 mm 7 m/s 724 mmHg 21%
11:00 +27°C° 0 mm 7 m/s 724 mmHg 18%
12:00 +31°C° 0 mm 8 m/s 724 mmHg 15%
13:00 +31°C° 0 mm 8 m/s 723 mmHg 14%
14:00 +32°C° 0 mm 7 m/s 722 mmHg 13%
15:00 +33°C° 0 mm 7 m/s 722 mmHg 13%
16:00 +30°C° 0 mm 6 m/s 722 mmHg 14%
17:00 +28°C° 0 mm 5 m/s 722 mmHg 16%
18:00 +26°C° 0 mm 4 m/s 722 mmHg 18%
19:00 +25°C° 0 mm 4 m/s 722 mmHg 19%
20:00 +23°C° 0 mm 4 m/s 722 mmHg 20%
21:00 +22°C° 0 mm 4 m/s 722 mmHg 21%
22:00 +21°C° 0 mm 4 m/s 722 mmHg 22%
23:00 +20°C° 0 mm 4 m/s 722 mmHg 22%

30 Janeiro, Sábado

Tempo Temperatura Precipitação Vento Pressão Humidade
00:00 +20°C° 0 mm 4 m/s 722 mmHg 23%
01:00 +19°C° 0 mm 3 m/s 722 mmHg 24%
02:00 +19°C° 0 mm 3 m/s 722 mmHg 24%
03:00 +19°C° 0 mm 3 m/s 722 mmHg 25%
04:00 +19°C° 0 mm 4 m/s 722 mmHg 28%
05:00 +19°C° 0 mm 5 m/s 723 mmHg 31%
06:00 +19°C° 0 mm 6 m/s 723 mmHg 34%
07:00 +19°C° 0 mm 6 m/s 724 mmHg 30%
08:00 +20°C° 0 mm 7 m/s 725 mmHg 25%
09:00 +21°C° 0 mm 7 m/s 725 mmHg 21%
10:00 +22°C° 0 mm 7 m/s 725 mmHg 20%
11:00 +23°C° 0 mm 7 m/s 725 mmHg 19%
12:00 +26°C° 0 mm 7 m/s 725 mmHg 19%
13:00 +26°C° 0 mm 7 m/s 725 mmHg 19%
14:00 +26°C° 0 mm 6 m/s 724 mmHg 19%
15:00 +26°C° 0 mm 6 m/s 724 mmHg 20%
16:00 +23°C° 0 mm 5 m/s 724 mmHg 22%
17:00 +21°C° 0 mm 5 m/s 725 mmHg 24%
18:00 +19°C° 0 mm 5 m/s 725 mmHg 26%
19:00 +17°C° 0 mm 5 m/s 726 mmHg 28%
20:00 +16°C° 0 mm 5 m/s 726 mmHg 31%
21:00 +15°C° 0 mm 5 m/s 727 mmHg 34%
22:00 +14°C° 0 mm 4 m/s 726 mmHg 37%
23:00 +13°C° 0 mm 4 m/s 726 mmHg 40%

31 Janeiro, Domingo

Tempo Temperatura Precipitação Vento Pressão Humidade
00:00 +12°C° 0 mm 4 m/s 726 mmHg 43%
01:00 +11°C° 0 mm 3 m/s 726 mmHg 43%
02:00 +10°C° 0 mm 3 m/s 726 mmHg 43%
03:00 +10°C° 0 mm 3 m/s 726 mmHg 44%
04:00 +9°C° 0 mm 3 m/s 726 mmHg 44%
05:00 +9°C° 0 mm 2 m/s 726 mmHg 45%
06:00 +8°C° 0 mm 2 m/s 726 mmHg 46%
07:00 +10°C° 0 mm 2 m/s 727 mmHg 41%
08:00 +13°C° 0 mm 2 m/s 727 mmHg 36%
09:00 +13°C° 0 mm 3 m/s 728 mmHg 31%
10:00 +16°C° 0 mm 2 m/s 728 mmHg 27%
11:00 +18°C° 0 mm 2 m/s 727 mmHg 24%
12:00 +20°C° 0 mm 2 m/s 727 mmHg 20%
13:00 +21°C° 0 mm 2 m/s 727 mmHg 18%
14:00 +23°C° 0 mm 2 m/s 726 mmHg 17%
15:00 +24°C° 0 mm 2 m/s 726 mmHg 16%
16:00 +21°C° 0 mm 2 m/s 726 mmHg 18%
17:00 +20°C° 0 mm 3 m/s 726 mmHg 20%
18:00 +18°C° 0 mm 3 m/s 726 mmHg 21%
19:00 +17°C° 0 mm 3 m/s 727 mmHg 23%
20:00 +16°C° 0 mm 3 m/s 727 mmHg 24%
21:00 +14°C° 0 mm 4 m/s 728 mmHg 25%
22:00 +13°C° 0 mm 3 m/s 727 mmHg 26%
23:00 +13°C° 0 mm 2 m/s 727 mmHg 28%

1 Fevereiro, Segunda-feira

Tempo Temperatura Precipitação Vento Pressão Humidade
00:00 +12°C° 0 mm 2 m/s 727 mmHg 29%
01:00 +10°C° 0 mm 2 m/s 727 mmHg 30%
02:00 +11°C° 0 mm 1 m/s 727 mmHg 32%
03:00 +10°C° 0 mm 1 m/s 727 mmHg 33%
04:00 +10°C° 0 mm 1 m/s 727 mmHg 34%
05:00 +10°C° 0 mm 1 m/s 727 mmHg 34%
06:00 +9°C° 0 mm 1 m/s 727 mmHg 35%
07:00 +11°C° 0 mm 1 m/s 728 mmHg 31%
08:00 +14°C° 0 mm 1 m/s 729 mmHg 28%
09:00 +16°C° 0 mm 1 m/s 729 mmHg 24%
10:00 +19°C° 0 mm 1 m/s 729 mmHg 21%
11:00 +21°C° 0 mm 1 m/s 729 mmHg 19%
12:00 +23°C° 0 mm 2 m/s 728 mmHg 17%
13:00 +23°C° 0 mm 2 m/s 728 mmHg 16%
14:00 +24°C° 0 mm 2 m/s 727 mmHg 15%
15:00 +25°C° 0 mm 1 m/s 727 mmHg 15%
16:00 +23°C° 0 mm 2 m/s 727 mmHg 17%
17:00 +20°C° 0 mm 2 m/s 727 mmHg 19%
18:00 +18°C° 0 mm 3 m/s 727 mmHg 21%
19:00 +18°C° 0 mm 3 m/s 727 mmHg 21%
20:00 +17°C° 0 mm 3 m/s 727 mmHg 22%
21:00 +16°C° 0 mm 3 m/s 728 mmHg 23%
22:00 +14°C° 0 mm 3 m/s 728 mmHg 24%
23:00 +14°C° 0 mm 2 m/s 728 mmHg 25%
Mostrar mais

Necessitamos do seu Consentimento

A Meteoprog e os seus Fornecedores de Serviços podem armazenar e aceder a dados pessoais como cookies, identificadores do dispositivo ou outras tecnologias semelhantes existentes no seu dispositivo e processar estes dados para personalizar conteúdos e anúncios, assim como funcionalidades nas redes sociais e análise de tráfego.

  • Armazenar e/ou aceder a informações no seu dispositivo

    Os cookies, identificadores do dispositivo ou outras informações podem ser armazenados ou acedidos no seu dispositivo, para os fins acima indicados.

  • Anúncios e conteúdos personalizados, medição de anúncios e conteúdos, dados sobre o público-alvo e desenvolvimento de produtos

    Os anúncios e os conteúdos podem ser personalizados com base num perfil. Podem ser adicionados dados adicionais para uma maior personalização dos anúncios e dos conteúdos. A eficácia dos anúncios e dos conteúdos pode ser medida. Podem ser obtidas informações sobre o público que visualizou os anúncios e os conteúdos. Estes dados podem ser usados para desenvolver ou melhorar sistemas, softwares ou a experiência do utilizador.

Ao clicar em "Eu concordo”, permitirá o uso de cookies, identificadores do dispositivo e web beacons mencionados ou outras tecnologias semelhantes. As configurações do navegador do seu dispositivo podem ser alteradas.

Para certos fins, podem ser invocados interesses legítimos ao invés de consentimento. Pode ler mais informação sobre este assunto na nossa Política de Privacidade e Cookies.